{"data":{"norad_id":49417,"epoch":"2026-09-20T03:04:06.138048Z","epoch_age_seconds":73378,"freshness":"FRESH","line1":"1 49417U 21104K   26263.12784882 -.00002225  00000+0 -54796-4 0  9999","line2":"2 49417  53.1616  53.8084 0001189  86.0894 274.0245 15.34373197268284","mean_motion":15.34373197,"eccentricity":0.0001189,"inclination_deg":53.1616,"raan_deg":53.8084,"arg_perigee_deg":86.0894,"mean_anomaly_deg":274.0245,"bstar":-5.4796e-5,"rev_number":26828,"period_min":93.849397448775,"perigee_km":461.96952015448,"apogee_km":463.59629090801,"semimajor_km":6840.9199055312,"source":"CELESTRAK","updated_at":"2026-09-20T09:00:39.256696Z"}}